Flag for Croatia Weather past 2 weeks in Zagreb, Croatia

Now
59 °F

Sunny.


Feels Like: 59 °F
Forecast: 53 / 76 °F
Wind: 2 mph from North

Location: Zagreb / Pleso

Current Time: May 30, 2015 at 8:38:25 AM

Latest Report: May 30, 2015 at 8:00 AM


Visibility: 10 mi

Pressure: 29.95 "Hg

Humidity: 63%

Dew point: 46 °F

Location of ZagrebLocation

Historic Weather in Zagreb — Graph

°F

Zagreb temperature yesterday

Maximum temperature yesterday: 75 °F (at 3:00 PM)
Minimum temperature yesterday: 43 °F (at 4:30 AM)
Average temperature yesterday: 61 °F

Past Weeks' High & Low Weather Summary

 TemperatureHumidityPressure
High86 °F (May 19, 5:00 PM)94% (May 15, 8:00 AM)30.21 "Hg (May 15, 8:00 AM)
Low43 °F (May 29, 4:30 AM)36% (May 29, 3:00 PM)29.71 "Hg (May 19, 4:30 PM)
Average60 °F75%29.96 "Hg
* Reported May 15 7:00 AM — May 30 7:30 AM, Zagreb, Weather by CustomWeather, © 2015

Note: Actual official high and low records may vary slightly from our data, if they occured in-between our weather recording intervals... More about our weather records

Advertising

Zagreb weather history for previous 24 hours

 ConditionsComfort  
Time TempWeatherWind HumidityBarometerVisibility
7:30 AM
Sat, May 30
57 °FSunny.1 mph72%29.95 "Hg10 mi
7:00 AM54 °FSunny.No wind82%29.92 "Hg10 mi
6:30 AM52 °FSunny.1 mph88%29.92 "Hg10 mi
6:00 AM50 °FClear.2 mph88%29.92 "Hg10 mi
5:30 AM46 °FClear.3 mph93%29.92 "Hg10 mi
5:00 AM46 °FClear.2 mph93%29.92 "Hg10 mi
4:30 AM48 °FClear.2 mph87%29.89 "Hg10 mi
4:00 AM48 °FClear.1 mph94%29.92 "Hg10 mi
3:30 AM48 °FClear.No wind87%29.92 "Hg10 mi
3:00 AM50 °FClear.2 mph88%29.92 "Hg10 mi
2:30 AM50 °FClear.2 mph88%29.92 "Hg10 mi
2:00 AM52 °FClear.2 mph88%29.92 "Hg10 mi
1:30 AM52 °FClear.2 mph82%29.92 "Hg10 mi
1:00 AM54 °FClear.2 mph82%29.92 "Hg10 mi
12:30 AM55 °FClear.3 mph77%29.92 "Hg10 mi
12:00 AM57 °FPassing clouds.3 mph77%29.92 "HgN/A
11:30 PM
Fri, May 29
59 °FClear.2 mph72%29.92 "Hg10 mi
10:30 PM63 °FPassing clouds.3 mph64%29.92 "HgN/A
10:00 PM63 °FClear.2 mph64%29.92 "Hg10 mi
9:30 PM64 °FSunny.3 mph56%29.92 "Hg10 mi
9:00 PM66 °FSunny.3 mph52%29.92 "Hg10 mi
8:30 PM68 °FSunny.3 mph49%29.92 "Hg10 mi
8:00 PM70 °FSunny.5 mph50%29.92 "Hg10 mi
7:30 PM72 °FPassing clouds.7 mph41%29.92 "HgN/A
7:00 PM73 °FPassing clouds.7 mph41%29.92 "HgN/A
6:30 PM73 °FPassing clouds.6 mph38%29.92 "HgN/A
6:00 PM75 °FPassing clouds.7 mph41%29.92 "HgN/A
5:30 PM75 °FPassing clouds.5 mph36%29.92 "HgN/A
5:00 PM75 °FPassing clouds.7 mph39%29.95 "HgN/A
4:30 PM75 °FSunny.7 mph41%29.95 "Hg10 mi
4:00 PM75 °FPassing clouds.7 mph36%29.95 "HgN/A
3:30 PM75 °FSunny.5 mph44%29.95 "Hg10 mi
3:00 PM75 °FSunny.3 mph36%29.98 "Hg10 mi
2:30 PM73 °FSunny.2 mph41%29.98 "Hg10 mi
2:00 PM73 °FSunny.5 mph44%29.98 "Hg10 mi
1:30 PM72 °FSunny.3 mph44%30.01 "Hg10 mi
1:00 PM70 °FSunny.3 mph43%30.01 "Hg10 mi
12:30 PM70 °FSunny.3 mph43%30.01 "Hg10 mi
12:00 PM70 °FSunny.3 mph46%30.01 "Hg10 mi
11:30 AM68 °FSunny.5 mph46%30.04 "Hg10 mi
11:00 AM66 °FSunny.5 mph52%30.04 "Hg10 mi
10:30 AM64 °FSunny.5 mph52%30.04 "Hg10 mi
10:00 AM63 °FPassing clouds.5 mph59%30.04 "HgN/A
9:30 AM61 °FPassing clouds.3 mph63%30.04 "HgN/A
9:00 AM57 °FSunny.2 mph72%30.04 "Hg10 mi
8:30 AM55 °FSunny.1 mph77%30.04 "Hg10 mi
8:00 AM54 °FSunny.2 mph72%30.04 "Hg10 mi
Weather by CustomWeather, © 2015

See weather overviewHow to use our weather pages